Location: Riverside Cemetery
(38.3047°N, 99.7773°W)
Time: 16:01:28
(UTC+00:00)

DELTA 2 R/B (1) - Pass Details

Date: 19 September 2020
Orbit: 790 x 803 km, 39.6° (Epoch: 22 October)

Event Time Altitude Azimuth Distance (km) Brightness Sun altitude
Rises 02:17:49 0° 284° (WNW) 3,277 8.4 -19.4°
Reaches altitude 10° 02:20:19 10° 281° (W) 2,347 7.2 -19.9°
Maximum altitude 02:25:45 61° 202° (SSW) 894 3.8 -20.9°
Enters shadow 02:27:32 40° 143° (SE) 1,142 4.0 -21.2°
